STARLINK-3112 (49421 NORAD) Tracking and Keplerian Element Data

This shows tracking and keplerian element data for the satellite.

Feedback or suggestion? Click here.




ElementValue
Catalog49421
NameSTARLINK-3112
Epoch Orbit366
Epoch Day15.91668981
Epoch Year2022
RAAN185.36
Inclination53.2173
Eccentricity0.0001417
Argument of Perigee56.2436
Mean Anonmoly43.0339
Mean Motion15.25126108
Decay Rate-0.00653604
L11 49421U 21104P 22015.91668981 -.00653604 00000+0 -27739-1 0 9990
L22 49421 53.2173 185.3600 0001417 56.2436 43.0339 15.25126108 3663

Live tracking and technical data element details for STARLINK-3112 (NORAD 49421). STARLINK-3112 can be tracked NOW for your location showing map with azimuth and elevation plus other details from your city location.

Track the satellite on the map from your city or location and see movement details for azimuth, elevation, latitude, longitude, range, height, and movement on the map or in text.







IsCatalogInMostPopularTable: catalog: 49421, numindb: 5
Update: records affected: 1



GetName: 49421 STARLINK-3112

Hit Count: updated at: Thu, 20 Jan 2022 17:36:00 GMT